Location: Jaite
(41.2884°N, 81.5737°W)
Time: 12:27:28
(UTC+00:00)

Cosmos 2242 Rocket - Pass Details

Date: 15 November 2025
Orbit: 614 x 644 km, 82.5° (Epoch: 11 December)

Event Time Altitude Azimuth Distance (km) Brightness Sun altitude
Rises 11:03:39 0° 209° (SSW) 2,872 6.8 -13.5°
Reaches altitude 10° 11:06:02 10° 219° (SW) 1,974 5.9 -13.0°
Maximum altitude 11:09:59 33° 284° (WNW) 1,054 4.2 -12.3°
Drops below altitude 10° 11:13:59 10° 349° (NNW) 2,001 5.9 -11.6°
Sets 11:16:25 0° 359° (N) 2,917 6.8 -11.2°
